{"data":{"norad_id":68028,"epoch":"2026-09-19T13:45:33.566688Z","epoch_age_seconds":139610,"freshness":"FRESH","line1":"1 68028U 26040P   26262.57330517  .00166105  00000+0  26262-2 0  9993","line2":"2 68028  97.2797 210.1417 0006691 102.6396 257.5605 15.52855421 31194","mean_motion":15.52855421,"eccentricity":0.0006691,"inclination_deg":97.2797,"raan_deg":210.1417,"arg_perigee_deg":102.6396,"mean_anomaly_deg":257.5605,"bstar":0.0026262,"rev_number":3119,"period_min":92.732393532984,"perigee_km":403.85296157881,"apogee_km":412.93469713465,"semimajor_km":6786.5308293567,"source":"CELESTRAK","updated_at":"2026-09-20T09:00:43.744165Z"}}